TimeEST,TemperatureF,Dew PointF,Humidity,Sea Level PressureIn,VisibilityMPH,Wind Direction,Wind SpeedMPH,Gust SpeedMPH,PrecipitationIn,Events,Conditions,WindDirDegrees,DateUTC
12:02 AM,39.2,37.4,93,30.09,5.0,NE,9.2,-,0.03,Rain,Rain,40,2013-12-29 05:02:00
12:46 AM,39.2,37.4,93,30.04,9.0,NE,10.4,-,0.07,Rain,Light Rain,50,2013-12-29 05:46:00
12:53 AM,39.9,37.9,93,30.06,6.0,ENE,8.1,-,0.08,Rain,Light Rain,60,2013-12-29 05:53:00
1:00 AM,39.2,37.4,93,30.04,7.0,East,9.2,-,0.00,Rain,Light Rain,80,2013-12-29 06:00:00
1:53 AM,39.9,37.0,89,30.01,3.0,NE,12.7,21.9,0.17,Rain,Heavy Rain,50,2013-12-29 06:53:00
2:10 AM,39.2,37.4,93,30.01,9.0,ENE,9.2,23.0,0.02,Rain,Light Rain,60,2013-12-29 07:10:00
2:53 AM,39.9,37.0,89,29.99,6.0,ENE,15.0,19.6,0.06,Rain,Rain,60,2013-12-29 07:53:00
3:25 AM,39.2,37.4,93,29.93,6.0,ENE,15.0,27.6,0.06,Rain,Rain,70,2013-12-29 08:25:00
3:49 AM,39.2,37.4,93,29.91,6.0,ENE,11.5,21.9,0.12,Rain,Rain,60,2013-12-29 08:49:00
3:53 AM,39.9,37.9,93,29.93,7.0,NE,15.0,20.7,0.12,Rain,Light Rain,40,2013-12-29 08:53:00
4:53 AM,41.0,37.9,89,29.89,2.5,NNE,9.2,-,0.24,Rain,Heavy Rain,30,2013-12-29 09:53:00
5:08 AM,41.0,39.2,93,29.89,4.0,NE,9.2,-,0.05,Rain,Heavy Rain,40,2013-12-29 10:08:00
5:20 AM,41.0,39.2,93,29.88,5.0,NE,6.9,-,0.06,Rain,Light Rain,40,2013-12-29 10:20:00
5:51 AM,41.0,39.2,93,29.85,2.5,NE,9.2,-,0.13,Rain,Rain,50,2013-12-29 10:51:00
5:53 AM,41.0,39.0,93,29.87,3.0,ENE,8.1,-,0.13,Rain,Light Rain,60,2013-12-29 10:53:00
6:53 AM,42.1,39.0,89,29.86,4.0,NNE,6.9,-,0.04,Rain,Rain,20,2013-12-29 11:53:00
7:03 AM,42.8,39.2,87,29.85,5.0,Variable,3.5,-,0.01,Rain,Light Rain,0,2013-12-29 12:03:00
7:51 AM,42.8,39.2,87,29.85,4.0,North,5.8,-,0.03,Rain,Light Rain,350,2013-12-29 12:51:00
7:53 AM,42.1,39.9,92,29.86,4.0,North,5.8,-,0.03,Rain,Light Rain,350,2013-12-29 12:53:00
8:01 AM,42.8,39.2,87,29.84,4.0,North,4.6,-,0.00,Rain,Light Rain,10,2013-12-29 13:01:00
8:27 AM,42.8,41.0,93,29.83,10.0,East,4.6,-,0.00,,Overcast,90,2013-12-29 13:27:00
8:53 AM,43.0,41.0,93,29.84,10.0,ESE,3.5,-,0.00,,Overcast,120,2013-12-29 13:53:00
9:53 AM,45.0,42.1,90,29.86,10.0,Calm,Calm,-,N/A,,Overcast,0,2013-12-29 14:53:00
10:08 AM,44.6,42.8,93,29.86,10.0,West,5.8,-,N/A,,Overcast,270,2013-12-29 15:08:00
10:53 AM,46.9,44.1,90,29.88,10.0,WSW,6.9,-,N/A,,Overcast,250,2013-12-29 15:53:00
11:53 AM,48.0,45.0,89,29.86,10.0,West,6.9,-,N/A,,Overcast,260,2013-12-29 16:53:00
12:01 PM,48.2,44.6,87,29.85,10.0,West,9.2,-,N/A,,Overcast,260,2013-12-29 17:01:00
12:53 PM,50.0,46.0,86,29.85,10.0,WSW,8.1,-,N/A,,Overcast,250,2013-12-29 17:53:00
1:53 PM,54.0,48.0,80,29.84,10.0,WSW,9.2,-,N/A,,Mostly Cloudy,240,2013-12-29 18:53:00
2:09 PM,55.4,48.2,77,29.83,10.0,WSW,9.2,-,N/A,,Scattered Clouds,250,2013-12-29 19:09:00
2:34 PM,57.2,48.2,72,29.83,10.0,SW,8.1,-,N/A,,Mostly Cloudy,220,2013-12-29 19:34:00
2:53 PM,57.9,48.9,72,29.83,10.0,SW,5.8,-,N/A,,Mostly Cloudy,220,2013-12-29 19:53:00
3:03 PM,59.0,48.2,67,29.82,10.0,SW,8.1,-,N/A,,Scattered Clouds,230,2013-12-29 20:03:00
3:53 PM,60.1,48.0,64,29.83,10.0,WSW,9.2,-,N/A,,Clear,240,2013-12-29 20:53:00
4:53 PM,57.9,46.9,67,29.85,10.0,SW,8.1,-,N/A,,Clear,220,2013-12-29 21:53:00
5:53 PM,55.0,46.0,72,29.87,10.0,SW,9.2,-,N/A,,Clear,220,2013-12-29 22:53:00
6:53 PM,53.1,45.0,74,29.89,10.0,WSW,5.8,-,N/A,,Clear,240,2013-12-29 23:53:00
7:53 PM,51.1,45.0,80,29.91,10.0,WNW,3.5,-,N/A,,Clear,290,2013-12-30 00:53:00
8:53 PM,48.0,42.1,80,29.93,10.0,Calm,Calm,-,N/A,,Clear,0,2013-12-30 01:53:00
9:53 PM,48.0,42.1,80,29.96,10.0,Calm,Calm,-,N/A,,Clear,0,2013-12-30 02:53:00
10:53 PM,45.0,39.9,82,29.97,10.0,Calm,Calm,-,N/A,,Clear,0,2013-12-30 03:53:00
11:53 PM,44.1,39.9,85,29.99,10.0,Calm,Calm,-,N/A,,Clear,0,2013-12-30 04:53:00